FW8992 Weather Reports


time (UTC)temp
C
wind
direction
speed
KPH
gust
KPH
rain 1hr
cm
rain 24hr
cm
rain mn
cm
humidity
%
barometer
mb
20260506073048 11 29 6.4 14.5 0.00 0.00 0.00 83 1011.0
20260506071545 11 21 6.4 16.1 0.00 0.00 0.00 83 1010.9
20260506061539 11 14 4.8 14.5 0.00 0.00 0.00 81 1010.8
20260506044618 13 36 8.0 25.7 0.00 0.00 0.00 74 1009.5
20260506043046 13 97 6.4 20.9 0.00 0.00 0.00 72 1009.9
20260506041553 14 9 9.7 22.5 0.00 0.00 0.00 70 1009.9
20260506040043 15 60 4.8 17.7 0.00 0.00 0.00 68 1009.8
20260506034605 15 42 4.8 16.1 0.00 0.00 0.00 66 1009.8
20260506033039 16 44 4.8 20.9 0.00 0.00 0.00 64 1009.8
20260506031545 17 360 4.8 19.3 0.00 0.00 0.00 63 1009.6
20260506030045 18 11 6.4 16.1 0.00 0.00 0.00 62 1009.2
20260506024544 18 58 3.2 12.9 0.00 0.00 0.00 60 1008.8
20260506023101 19 36 3.2 12.9 0.00 0.00 0.00 58 1008.8
20260506021539 20 20 4.8 19.3 0.00 0.00 0.00 57 1008.5
20260506020046 20 11 4.8 14.5 0.00 0.00 0.00 56 1008.3
20260506014545 20 83 4.8 12.9 0.00 0.00 0.00 55 1008.0
20260506013043 21 22 3.2 20.9 0.00 0.00 0.00 53 1007.9
20260506011544 21 42 4.8 16.1 0.00 0.00 0.00 53 1007.3
20260506010051 22 44 4.8 14.5 0.00 0.00 0.00 52 1007.3
20260506004559 22 40 6.4 19.3 0.00 0.00 0.00 51 1006.8
20260506003101 23 352 4.8 17.7 0.00 0.00 0.00 51 1006.9
20260506001544 23 348 4.8 17.7 0.00 0.00 0.00 50 1006.5
20260506000043 24 9 3.2 19.3 0.00 0.00 0.00 51 1006.3
20260505234559 25 29 8.0 22.5 0.00 0.00 0.00 49 1006.3
20260505233040 25 51 8.0 25.7 0.00 0.00 0.00 49 1005.5
20260505231540 27 306 6.4 25.7 0.00 0.00 0.00 46 1005.6
20260505230042 28 347 8.0 17.7 0.00 0.00 0.00 41 1006.2
20260505224543 29 360 8.0 25.7 0.00 0.00 0.00 37 1005.7
20260505223044 31 16 8.0 20.9 0.00 0.00 0.00 35 1005.3
20260505221543 31 30 4.8 14.5 0.00 0.00 0.00 36 1004.8
20260505220055 31 65 4.8 14.5 0.00 0.00 0.00 34 1005.0
20260505214541 32 28 6.4 19.3 0.00 0.00 0.00 31 1004.9
20260505213042 32 227 8.0 17.7 0.00 0.00 0.00 28 1005.0
20260505211551 32 115 3.2 16.1 0.00 0.00 0.00 35 1005.2
20260505210043 32 221 6.4 14.5 0.00 0.00 0.00 34 1005.4
20260505204545 32 211 8.0 14.5 0.00 0.00 0.00 33 1005.4
20260505203049 31 138 6.4 14.5 0.00 0.00 0.00 38 1005.3
20260505201546 31 168 6.4 16.1 0.00 0.00 0.00 38 1006.0
20260505200043 31 217 4.8 14.5 0.00 0.00 0.00 36 1006.2
20260505194545 31 96 4.8 17.7 0.00 0.00 0.00 40 1006.2
20260505193046 31 202 4.8 16.1 0.00 0.00 0.00 39 1006.4
20260505191551 30 215 6.4 19.3 0.00 0.00 0.00 40 1006.6
20260505190044 30 232 3.2 17.7 0.00 0.00 0.00 44 1006.7
20260505184545 30 146 3.2 17.7 0.00 0.00 0.00 45 1006.8
20260505183041 29 209 8.0 17.7 0.00 0.00 0.00 46 1007.0
20260505181542 28 264 6.4 20.9 0.00 0.00 0.00 45 1007.2
20260505180049 28 222 9.7 19.3 0.00 0.00 0.00 49 1007.4
20260505174604 28 311 9.7 22.5 0.00 0.00 0.00 48 1007.2
20260505173046 27 240 6.4 19.3 0.00 0.00 0.00 52 1007.1
20260505171542 27 216 9.7 24.1 0.00 0.00 0.00 52 1007.2
20260505170100 26 232 6.4 19.3 0.00 0.00 0.00 58 1007.2
20260505164542 26 244 9.7 22.5 0.00 0.00 0.00 58 1007.1
20260505163046 25 189 8.0 24.1 0.00 0.00 0.00 60 1007.1
20260505161554 25 229 12.9 27.4 0.00 0.00 0.00 61 1007.1
20260505153053 23 229 14.5 25.7 0.00 0.00 0.00 64 1006.8
20260505151546 23 229 14.5 29.0 0.00 0.00 0.00 67 1006.5
20260505124544 19 221 12.9 24.1 0.00 0.00 0.00 81 1005.3
20260505123101 19 184 11.3 25.7 0.00 0.00 0.00 81 1005.2
20260505121539 19 207 14.5 30.6 0.00 0.00 0.00 81 1005.1
20260505120046 19 167 14.5 25.7 0.00 0.00 0.00 81 1005.1
20260505114603 19 212 16.1 27.4 0.00 0.00 0.00 80 1005.0
20260505113042 19 202 16.1 33.8 0.00 0.00 0.00 80 1004.8
20260505111555 19 203 19.3 35.4 0.00 0.00 0.00 80 1004.7
20260505101544 19 165 16.1 33.8 0.00 0.00 0.00 79 1004.8
20260505100041 19 217 14.5 24.1 0.00 0.00 0.00 79 1004.7
20260505094542 20 184 12.9 32.2 0.00 0.00 0.00 78 1004.6
20260505093039 20 205 11.3 27.4 0.00 0.00 0.00 78 1004.8
20260505091546 20 163 11.3 25.7 0.00 0.00 0.00 78 1005.0
20260505090052 20 215 16.1 32.2 0.00 0.00 0.00 78 1004.9
20260505084543 20 193 14.5 30.6 0.00 0.00 0.00 77 1005.0
20260505083047 20 229 14.5 30.6 0.00 0.00 0.00 77 1005.3
20260505081548 20 263 12.9 25.7 0.00 0.00 0.00 77 1005.2